Location: Newark
(35.2672°N, 80.7344°W)
Time: 00:00:21
(UTC+00:00)

Altair - Visible Passes

Search period start: 27 January 2020 00:00
Search period end: 06 February 2020 00:00
Orbit: 1502 x 1682 km, 47.2° (Epoch: 26 January)

Date Brightness Start Highest point End Pass type
(mag) Time Alt. Az. Time Alt. Az. Time Alt. Az.
27 Jan 9.5 10:48:57 10° S 10:56:38 27° SE 11:04:29 10° ENE visible
28 Jan 9.6 10:24:20 10° S 10:31:34 24° SE 10:38:57 10° ENE visible
29 Jan 9.6 09:59:47 10° SSE 10:06:30 21° SE 10:13:21 10° E visible
30 Jan 9.7 09:35:21 10° SSE 09:41:27 19° ESE 09:47:38 10° E visible
30 Jan 8.0 11:35:11 10° SW 11:44:57 71° SE 11:55:01 10° ENE visible
31 Jan 9.7 09:11:04 10° SSE 09:16:24 16° ESE 09:21:49 10° E visible
31 Jan 8.0 11:10:08 10° SW 11:19:47 65° SE 11:29:45 10° ENE visible
01 Feb 9.7 08:46:59 10° SSE 08:51:22 14° ESE 08:55:48 10° E visible
01 Feb 8.1 10:45:06 10° SSW 10:54:38 60° SE 11:04:29 10° ENE visible
02 Feb 9.7 08:23:19 10° SE 08:26:20 12° ESE 08:29:21 10° ESE visible
02 Feb 8.1 10:20:05 10° SSW 10:29:29 56° SE 10:39:12 10° ENE visible
03 Feb 8.2 09:56:03 13° SSW 10:04:21 51° SE 10:13:54 10° ENE visible
04 Feb 8.3 09:33:34 24° S 09:39:14 46° SE 09:48:35 10° ENE visible
04 Feb 7.7 11:34:02 10° WSW 11:43:50 67° NNW 11:53:57 10° NE visible
05 Feb 8.4 09:10:49 33° S 09:14:07 42° SE 09:23:15 10° ENE visible
05 Feb 7.6 11:08:55 10° WSW 11:18:35 71° NNW 11:28:43 10° NE visible
